Clarksburg, WV

2:47 PM EDT on June 28, 2017 (GMT -0400)
Benedum

Weather History for KCKB - January, 2012

Change the Weather History Date:

Monday, January 23, 2012

  Actual Average Record
Temperature  
Mean Temperature 56 °F -  
Max Temperature 64 °F 40 °F 74 °F (1932)
Min Temperature 46 °F 21 °F -15 °F (1936)
Degree Days  
Heating Degree Days 9    
Growing Degree Days 6 (Base 50)    
Moisture  
Dew Point 42 °F    
Average Humidity 64    
Maximum Humidity 90    
Minimum Humidity 50    
Precipitation  
Precipitation 0.15 in - - ()
Sea Level Pressure  
Sea Level Pressure 29.83 in    
Wind  
Wind Speed 9 mph (SSW)    
Max Wind Speed 24 mph    
Max Gust Speed 32 mph    
Visibility 10 miles    
Events Rain    
Averages and records for this station are not official NWS values.
T = Trace of Precipitation, MM = Missing Value Source: NWS Daily Summary

Daily Weather History Graph

Daily Weather History Graph

Search for Another Location

Airport or City:

Trip Planner

Search our weather history database for the weather conditions in past years. The results will help you decide how hot, cold, wet, or windy it might be!

Date:

Astronomy

Jan. 23, 2012 Rise Set
Actual Time 7:35 AM EST 5:30 PM EST
Civil Twilight 7:06 AM EST 5:59 PM EST
Nautical Twilight 6:33 AM EST 6:31 PM EST
Astronomical Twilight 6:01 AM EST 7:03 PM EST
Moon 7:30 AM EST (1/23) 6:15 PM EST (1/23)
Length of Visible Light 10h 53m
Length of Day
9h 55m
New Moon, 0% of the Moon is Illuminated
Jan 23
New Moon
Jan 30
First Quarter
Feb 7
Full
Feb 14
Last Quarter
Feb 21
New

Hourly Weather History & Observations

Time (EST) Temp. Dew Point Humidity Pressure Visibility Wind Dir Wind Speed Gust Speed Precip Events Conditions
12:53 AM 48.0 °F 36.0 °F 63% 30.00 in 10.0 mi ESE 8.1 mph - N/A   Overcast
1:53 AM 48.0 °F 37.0 °F 66% 29.99 in 10.0 mi ESE 4.6 mph - N/A   Clear
2:53 AM 50.0 °F 37.9 °F 63% 29.95 in 10.0 mi SE 5.8 mph - N/A   Clear
3:53 AM 50.0 °F 37.9 °F 63% 29.92 in 10.0 mi SE 8.1 mph - N/A   Clear
4:53 AM 50.0 °F 39.0 °F 66% 29.88 in 10.0 mi SSE 6.9 mph - N/A   Scattered Clouds
5:53 AM 50.0 °F 39.9 °F 68% 29.88 in 10.0 mi Calm Calm - N/A   Overcast
6:53 AM 51.1 °F 42.1 °F 71% 29.89 in 7.0 mi South 8.1 mph - 0.02 in Rain Light Rain
7:53 AM 50.0 °F 45.0 °F 83% 29.87 in 9.0 mi SSE 5.8 mph - 0.09 in Rain Light Rain
8:53 AM 48.9 °F 46.0 °F 90% 29.88 in 10.0 mi Calm Calm - 0.01 in Rain Light Rain
9:53 AM 52.0 °F 46.9 °F 83% 29.85 in 9.0 mi SSE 6.9 mph - 0.03 in Rain Light Rain
10:53 AM 55.0 °F 48.9 °F 80% 29.84 in 10.0 mi SSW 5.8 mph - 0.00 in   Mostly Cloudy
11:53 AM 60.8 °F 48.2 °F 63% 29.78 in 10.0 mi South 11.5 mph 18.4 mph N/A   Mostly Cloudy
1:53 PM 64.9 °F 48.0 °F 54% 29.67 in 10.0 mi SSW 24.2 mph 29.9 mph N/A   Scattered Clouds
2:53 PM 64.0 °F 46.0 °F 52% 29.66 in 10.0 mi SSW 23.0 mph 31.1 mph N/A   Clear
3:53 PM 63.0 °F 46.0 °F 54% 29.65 in 10.0 mi SSW 23.0 mph 32.2 mph N/A   Mostly Cloudy
4:53 PM 61.0 °F 46.0 °F 58% 29.68 in 10.0 mi SSW 17.3 mph 29.9 mph N/A   Scattered Clouds
5:53 PM 59.0 °F 45.0 °F 60% 29.71 in 10.0 mi SSW 15.0 mph - N/A   Scattered Clouds
6:53 PM 61.0 °F 42.1 °F 50% 29.75 in 10.0 mi WSW 15.0 mph 25.3 mph N/A   Partly Cloudy
7:53 PM 60.1 °F 42.1 °F 51% 29.77 in 10.0 mi WSW 17.3 mph 23.0 mph N/A   Clear
8:53 PM 57.0 °F 39.9 °F 53% 29.82 in 10.0 mi West 18.4 mph 27.6 mph N/A   Clear
9:53 PM 54.0 °F 37.9 °F 55% 29.87 in 10.0 mi West 13.8 mph 32.2 mph N/A   Clear
10:53 PM 51.1 °F 34.0 °F 52% 29.91 in 10.0 mi West 15.0 mph 26.5 mph N/A   Clear
11:53 PM 46.9 °F 35.1 °F 63% 29.94 in 10.0 mi West 8.1 mph 18.4 mph N/A   Clear